Home   Weather   New Bedford   Past weeks

Flag for USA Past Weather in New Bedford, Massachusetts, USA — Yesterday and Last 2 Weeks

Now
46 °F

Overcast.


Feels Like: 40 °F
Forecast: 35 / 45 °F
Wind: 15 mph from Northwest

Location: New Bedford Regional Airport

Current Time: Dec 3, 2016 at 3:01:22 pm

Latest Report: Dec 3, 2016 at 1:53 pm


Visibility: 10 mi

Pressure: 29.87 "Hg

Humidity: 46%

Dew Point: 26 °F

Location of New BedfordLocation

Past Weather in New Bedford — Graph

°F

New Bedford Temperature Yesterday

Maximum temperature yesterday: 51 °F (at 11:53 am)
Minimum temperature yesterday: 40 °F (at 4:53 am)
Average temperature yesterday: 44 °F

High & Low Weather Summary for the Past Weeks

 TemperatureHumidityPressure
High61 °F (Nov 18, 1:53 pm)97% (Nov 19, 11:53 pm)30.35 "Hg (Nov 19, 11:53 pm)
Low26 °F (Nov 23, 11:53 pm)40% (Nov 23, 1:53 pm)29.33 "Hg (Nov 20, 5:53 am)
Average43 °F72%29.91 "Hg
* Reported Nov 18 1:53 pm — Dec 3 1:53 pm, New Bedford, Weather by CustomWeather, © 2016

Note: Actual official high and low records may vary slightly from our data, if they occured in-between our weather recording intervals... More about our weather records

Advertising

New Bedford Weather History for the Previous 24 Hours

Scroll right to see more
 ConditionsComfort  
Time TempWeatherWind HumidityBarometerVisibility
1:53 pm
Sat, Dec 3
46 °FOvercast.15 mph46%29.87 "Hg10 mi
12:53 pm48 °FPartly sunny.9 mph43%29.86 "Hg10 mi
11:53 am46 °FPassing clouds.13 mph46%29.87 "Hg10 mi
10:53 am46 °FScattered clouds.9 mph46%29.86 "Hg10 mi
9:53 am45 °FSunny.12 mph48%29.87 "Hg10 mi
8:53 am43 °FSunny.13 mph51%29.85 "Hg10 mi
7:53 am40 °FSunny.12 mph58%29.83 "Hg10 mi
6:53 am39 °FOvercast.9 mph57%29.82 "Hg10 mi
5:53 am39 °FPassing clouds.10 mph60%29.80 "Hg10 mi
4:53 am39 °FPassing clouds.10 mph60%29.79 "Hg10 mi
2:53 am41 °FClear.14 mph60%29.76 "Hg10 mi
1:53 am42 °FPassing clouds.14 mph60%29.76 "Hg10 mi
11:53 pm
Fri, Dec 2
42 °FClear.10 mph62%29.75 "Hg10 mi
10:53 pm43 °FClear.14 mph62%29.76 "Hg10 mi
9:53 pm43 °FClear.12 mph60%29.75 "Hg10 mi
8:53 pm43 °FPassing clouds.8 mph56%29.76 "Hg10 mi
7:53 pm45 °FClear.9 mph51%29.76 "Hg10 mi
6:53 pm43 °FClear.7 mph58%29.77 "Hg10 mi
5:53 pm43 °FPassing clouds.3 mph62%29.77 "Hg10 mi
4:53 pm47 °FPassing clouds.6 mph52%29.77 "Hg10 mi
3:53 pm48 °FSunny.7 mph50%29.76 "Hg10 mi
Weather by CustomWeather, © 2016

See weather overviewHow to use our weather pages